Temperature
10 10 10 10 10 10 10 9 9 9 9 9 9 9 9 9 9 9 9 9 9 9 9 9 9 9 9 9 9 9 9 9 9 9 9 10 10 10 10 10 10 11 11
10 10 10 10 10 9 9 9 9 9 9 9 9 9 9 9 9 9 9 9 9 9 9 9 9 9 9 9 9 9 9 9 9 9 9 9 9 9 9 10 10 10 10
10 10 9 9 9 9 9 9 9 9 9 8 8 8 8 8 8 8 8 8 8 8 8 8 8 8 8 8 8 8 8 8 8 8 8 9 9 9 9 9 9 9 9
10 9 9 9 9 9 9 9 8 8 8 8 8 8 8 8 8 8 8 8 8 8 8 8 8 8 8 8 8 8 8 8 8 8 8 8 8 8 9 9 9 9 9
9 9 9 9 9 8 8 8 8 8 8 8 8 8 8 8 8 8 8 8 8 8 8 8 8 7 7 7 7 8 8 8 8 8 8 8 8 8 8 8 9 8 8
9 9 9 8 8 8 8 8 8 8 8 8 8 8 8 8 8 8 8 8 8 7 7 7 7 7 7 7 7 8 8 8 8 8 8 8 8 8 8 8 8 8 8
9 8 8 8 8 8 8 8 8 8 8 8 8 8 8 8 8 7 7 7 7 7 7 7 7 7 7 7 7 8 8 8 8 8 8 8 8 8 8 8 8 8 8
8 8 8 8 8 8 8 8 8 8 8 7 7 7 7 7 7 7 7 7 7 7 7 7 7 7 7 7 7 7 7 8 8 8 8 8 8 8 8 8 8 8 8
8 8 8 8 8 8 7 7 7 7 7 7 7 7 7 7 7 7 7 7 7 7 7 7 7 7 7 7 7 7 7 7 8 8 8 8 8 8 8 8 8 8 8
8 8 8 8 8 7 7 7 7 7 7 7 7 7 7 7 7 7 7 7 7 7 7 7 7 7 7 7 7 7 7 7 7 7 7 7 8 8 8 8 8 8 8
8 8 8 7 7 7 7 7 7 7 7 7 7 7 7 7 7 7 7 7 7 7 7 7 7 7 7 7 7 7 7 7 7 7 7 7 7 7 8 8 8 8 8
8 8 8 8 8 7 8 7 7 7 7 7 7 7 7 7 7 7 7 7 7 7 7 7 7 7 7 7 7 7 7 7 7 7 7 7 8 8 8 8 8 8 8
8 8 8 8 8 8 8 8 8 8 7 7 7 7 7 7 7 7 7 7 7 7 7 7 7 7 7 7 7 7 7 7 7 7 8 8 8 8 8 8 8 8 9
8 8 8 8 8 8 8 8 8 8 7 7 7 7 7 7 7 7 7 7 7 7 7 7 7 7 7 7 7 7 7 7 7 8 8 8 8 8 8 8 8 9 9
8 8 8 8 8 8 8 8 8 8 7 7 7 7 7 7 7 7 7 7 7 7 7 7 7 7 7 7 7 7 8 8 8 8 8 8 8 8 8 9 9 9 9
8 8 8 8 8 8 8 8 8 8 8 8 8 8 8 7 7 7 7 7 7 7 7 7 8 8 8 8 8 8 8 8 8 8 8 8 8 8 9 9 9 9 9
8 8 8 8 8 8 8 8 8 8 8 8 8 8 8 8 8 8 8 8 7 7 8 8 8 8 8 8 8 8 8 8 8 8 8 8 9 9 9 9 9 9 9
8 8 8 8 8 8 8 8 8 8 8 8 8 8 8 8 8 8 8 8 8 8 8 8 8 8 8 8 8 8 8 8 8 9 9 9 9 9 9 9 9 9 9
8 8 8 8 8 8 8 8 8 8 8 9 8 8 8 8 8 8 8 8 8 8 8 8 8 8 8 8 9 9 9 9 9 9 9 9 9 9 9 9 9 9 9
8 8 8 8 8 8 8 8 8 9 9 9 9 9 9 9 9 9 9 8 8 8 8 8 8 9 9 9 9 9 9 9 9 9 9 9 9 9 9 9 9 9 9
8 8 8 8 8 8 8 9 9 9 9 9 9 9 9 9 9 9 9 9 9 9 9 9 9 9 9 9 9 9 9 9 9 9 9 9 9 9 9 9 9 9 9
9 9 9 9 9 9 9 9 9 9 9 9 9 9 9 9 9 9 9 9 9 9 9 9 9 9 9 9 9 9 9 9 9 9 9 10 9 9 9 9 9 9 9
9 9 9 9 9 9 9 9 9 9 9 9 10 10 10 10 10 10 9 9 9 9 10 10 10 10 10 9 10 10 10 10 10 10 10 10 10 10 10 10 10 10 10
9 9 9 9 9 9 9 9 9 9 10 10 10 10 10 10 10 10 10 10 10 10 10 10 10 10 10 10 10 10 10 10 10 10 10 10 10 10 10 10 10 10 10
9 9 9 9 9 9 10 10 10 10 10 10 10 10 10 10 10 10 10 10 10 10 10 10 10 10 10 10 10 10 10 10 10 10 10 10 10 10 10 10 10 10 10
10 10 10 10 10 10 10 10 10 10 10 10 10 10 10 10 10 10 10 10 10 10 10 10 10 10 10 10 10 10 10 10 10 10 10 10 10 10 10 10 10 10 10
Wind_Speed
3 3 3 2 2 3 2 2 2 2 2 3 3 3 4 4 4 4 4 4 4 4 4 3 3 3 2 2 1 2 2 3 3 2 1 1 1 1 2 4 4 4 5
3 3 3 2 3 3 2 2 2 2 2 3 3 3 4 4 4 4 4 4 4 4 5 4 4 3 3 2 1 2 2 2 3 3 1 0 1 0 1 2 4 5 6
3 3 3 2 3 2 2 2 2 2 2 3 3 3 4 4 4 4 3 4 4 4 4 4 4 4 3 2 1 2 2 2 2 2 1 0 1 1 1 3 3 4 5
3 3 2 1 1 1 1 2 2 2 2 2 3 3 3 3 4 4 3 4 4 4 4 4 4 4 3 2 2 2 2 2 3 3 2 1 1 0 2 2 3 2 3
3 3 1 1 1 2 2 2 2 2 2 2 3 3 3 3 3 4 3 3 4 5 5 5 4 4 4 2 2 1 2 3 3 3 3 2 2 2 2 2 3 2 2
3 2 2 2 2 2 2 2 2 3 3 3 3 3 4 3 5 5 3 3 3 4 5 5 5 5 5 4 3 2 2 3 4 4 3 4 3 3 3 3 3 2 1
2 2 2 2 2 2 2 2 2 2 2 3 3 3 4 5 6 5 4 3 3 4 5 5 5 5 5 3 3 2 1 2 4 4 5 5 4 4 4 3 3 2 2
2 2 2 2 2 1 2 2 2 2 2 2 3 3 4 5 6 5 4 4 4 4 5 5 5 5 5 3 3 2 2 1 1 3 4 4 4 4 4 3 3 3 1
2 2 1 1 1 1 1 1 1 1 2 2 2 3 3 5 6 5 4 3 3 5 5 5 5 5 6 4 2 2 3 2 2 3 4 4 5 5 6 4 4 3 1
1 1 1 1 1 1 0 1 1 1 1 1 2 3 3 4 6 5 3 2 3 4 4 5 6 5 5 4 1 1 2 2 1 2 2 3 3 4 7 6 5 4 2
1 1 1 1 1 1 1 1 1 1 1 2 3 4 4 5 6 4 4 2 2 3 4 4 5 7 6 4 2 1 1 1 1 1 2 1 1 2 2 4 4 4 3
1 1 1 1 1 1 1 1 1 1 1 2 3 4 4 4 5 4 5 3 2 2 3 4 4 7 6 5 3 2 2 1 1 2 2 1 0 1 1 2 4 5 5
2 1 1 2 2 1 1 1 1 1 1 1 2 3 4 4 4 6 5 5 4 2 3 4 5 6 5 4 4 3 2 1 2 2 1 0 0 1 1 0 1 2 2
2 1 1 2 2 2 2 1 0 1 1 1 2 2 3 4 4 4 4 3 4 3 3 4 5 5 4 3 3 2 1 1 1 1 0 0 0 0 1 1 1 1 1
1 1 1 1 1 2 2 1 2 2 3 3 2 2 2 4 5 5 4 3 3 3 3 3 3 3 3 3 2 2 1 1 0 0 1 1 1 1 0 1 1 1 1
1 0 0 1 1 1 1 3 3 3 4 4 6 5 4 6 7 6 5 6 5 4 2 2 3 3 3 3 3 2 2 1 0 1 1 1 1 1 1 0 1 1 1
2 2 1 1 1 1 2 2 4 5 4 4 5 5 6 6 7 6 6 5 5 2 1 2 3 3 3 3 2 2 2 2 1 1 1 1 1 1 1 1 1 1 1
3 3 2 2 2 2 2 2 2 3 4 4 4 5 6 6 6 6 5 3 2 2 2 3 3 3 3 3 3 3 2 2 1 1 2 2 2 2 2 2 2 2 2
3 3 2 2 2 3 3 2 3 3 4 4 5 5 5 5 5 5 2 1 3 4 4 4 4 4 4 3 3 3 3 2 2 2 2 2 2 2 2 3 3 3 3
3 4 3 2 2 3 3 3 3 4 4 4 5 5 3 2 2 3 2 3 4 5 5 5 5 5 4 4 3 3 3 3 3 3 3 3 3 3 3 4 3 3 4
3 4 4 3 3 4 4 4 4 4 5 5 6 6 5 4 5 5 5 4 5 6 6 6 5 5 5 4 4 4 4 4 4 4 4 4 4 3 3 4 4 4 4
4 4 3 4 4 4 4 4 5 5 6 7 6 6 7 5 5 6 6 6 6 6 6 6 6 6 5 5 4 4 5 5 5 4 5 5 4 4 4 4 4 4 5
4 4 4 4 4 5 5 5 5 5 6 6 6 6 5 5 6 7 7 7 6 6 7 6 6 6 7 7 7 6 6 6 6 6 6 5 5 5 5 6 6 6 6
5 5 5 5 5 5 5 6 6 6 7 7 6 6 6 6 7 8 8 7 7 7 7 7 8 9 11 9 9 9 10 11 9 8 8 7 7 6 6 6 7 8 8
5 6 6 6 6 6 6 6 7 7 7 7 7 7 7 7 7 8 8 7 8 8 9 9 9 10 12 13 12 12 13 14 13 10 8 7 8 8 8 8 8 8 9
6 6 6 6 6 6 7 7 8 8 8 8 8 8 8 8 8 8 8 8 8 8 9 9 11 13 14 13 14 15 15 15 15 14 10 7 8 8 8 8 10 9 10
Wind_Direction
98 96 95 86 85 84 76 53 38 37 34 30 25 22 24 22 17 24 16 13 19 8 0 356 341 328 314 298 267 230 217 207 226 252 269 333 355 26 42 57 67 74 87
124 109 100 88 81 77 69 49 47 37 32 29 25 24 21 21 20 24 15 16 17 7 356 353 344 341 333 308 273 243 226 211 205 223 237 293 26 45 66 78 70 71 83
120 113 98 84 74 61 49 39 46 44 28 25 32 27 18 15 15 17 18 15 11 2 353 348 339 340 331 318 288 245 226 215 202 190 201 208 54 87 96 82 74 66 78
114 112 102 93 95 78 48 39 38 46 41 22 26 21 16 13 10 8 13 13 9 2 351 345 334 329 322 308 288 240 201 187 179 168 165 171 141 132 139 118 95 67 71
118 112 119 113 93 80 59 43 42 42 39 29 30 19 12 7 355 356 6 10 4 358 351 346 341 339 330 317 298 251 195 186 177 170 171 176 182 166 163 146 127 102 76
125 135 126 105 87 75 64 56 54 42 31 35 27 14 7 358 348 357 12 11 3 358 350 346 344 350 349 341 325 275 217 193 187 184 184 186 187 175 159 155 144 134 132
121 116 109 100 83 65 69 60 48 32 29 26 17 14 357 344 355 3 14 19 12 0 352 349 351 355 354 352 358 351 301 231 207 198 189 193 189 184 167 162 164 163 170
119 109 103 103 92 66 63 57 42 34 28 15 6 1 356 349 355 3 17 27 21 5 354 348 350 348 353 356 7 17 8 348 236 204 197 196 190 184 176 169 156 134 111
117 106 101 109 106 79 48 31 30 47 23 8 354 358 357 344 349 358 14 13 6 357 352 355 352 347 345 351 11 23 22 8 53 132 155 159 166 175 165 149 147 145 140
136 131 99 106 123 143 326 358 24 44 2 359 359 353 348 339 337 349 6 8 358 346 345 349 354 352 348 359 11 21 22 354 38 95 106 115 135 154 169 176 173 168 162
119 98 76 74 108 130 60 40 55 38 18 11 358 346 348 341 338 343 357 353 331 334 342 341 342 351 359 9 23 22 312 299 82 107 108 99 116 153 167 179 188 189 190
104 95 66 38 39 69 63 36 36 50 26 5 357 343 340 341 343 335 344 348 326 329 328 325 329 346 1 14 23 13 23 88 103 95 89 80 95 201 207 207 206 212 222
93 67 37 33 30 44 67 26 14 33 27 340 342 330 326 332 337 344 346 347 342 324 308 318 332 348 1 12 19 22 40 67 93 90 83 54 270 244 230 149 153 178 213
111 71 51 48 17 17 26 9 334 304 308 305 306 310 318 322 325 334 338 338 344 344 335 337 347 4 10 358 0 12 27 57 106 101 285 316 329 190 133 131 128 107 74
125 103 51 36 18 4 354 314 279 263 233 235 255 255 274 295 296 302 306 318 320 314 330 346 354 356 359 352 347 348 353 16 25 201 214 226 226 235 235 169 158 151 167
148 252 327 327 320 316 322 333 322 274 277 249 235 238 252 256 282 299 308 315 324 334 3 344 340 341 336 333 333 332 331 339 314 239 234 235 245 255 268 214 173 179 203
188 219 238 257 270 277 282 305 321 329 322 296 284 270 256 270 285 300 309 314 325 348 353 320 321 320 318 319 314 306 304 303 288 271 254 241 239 246 235 229 204 199 224
203 219 225 241 251 260 270 277 279 294 310 315 311 292 281 275 278 290 304 324 327 342 292 293 298 302 301 302 303 295 291 296 285 271 263 252 238 230 231 230 223 221 231
212 227 234 245 255 257 262 270 279 282 283 290 302 306 296 285 281 278 267 244 274 285 281 281 284 289 288 284 288 289 281 279 274 262 257 245 234 223 232 236 233 227 227
231 241 240 240 258 272 276 277 283 285 286 286 287 289 302 307 294 289 253 242 253 263 269 271 274 275 273 273 276 276 275 272 268 258 254 251 240 230 234 240 236 235 238
229 245 246 247 253 263 271 273 272 275 278 279 278 271 250 253 265 269 268 256 249 255 259 261 264 266 266 267 269 266 262 265 259 250 250 249 243 237 237 240 245 247 248
223 238 247 252 256 260 266 266 266 269 275 277 283 284 262 246 256 262 263 265 260 253 252 253 259 260 256 257 258 258 260 262 258 250 247 245 241 241 245 248 249 250 249
223 239 251 255 257 262 269 270 270 272 275 276 279 280 277 262 260 259 261 261 262 261 258 247 251 259 258 251 247 243 249 253 253 248 243 247 248 247 245 245 248 253 253
226 237 246 254 257 262 267 272 274 275 275 275 275 274 271 265 263 263 263 263 262 262 259 250 248 253 259 259 255 250 249 250 251 248 244 246 250 252 249 248 250 254 256
229 237 245 252 258 263 268 272 275 276 277 275 273 273 273 269 265 264 262 261 261 262 262 257 254 256 260 260 257 256 254 252 250 248 245 242 246 248 249 249 252 257 256
234 240 246 251 255 259 263 269 273 273 273 273 272 270 269 270 268 266 265 262 261 261 263 263 258 258 261 263 263 261 259 255 253 247 239 240 242 245 246 249 255 253 259
Height
1537 1538 1538 1538 1538 1538 1538 1538 1538 1538 1537 1537 1536 1534 1533 1531 1529 1528 1527 1525 1524 1522 1521 1520 1519 1518 1517 1517 1518 1518 1519 1520 1520 1520 1521 1522 1523 1524 1524 1525 1525 1525 1525
1536 1537 1538 1538 1538 1538 1538 1538 1538 1537 1537 1536 1535 1534 1532 1531 1529 1528 1526 1525 1523 1521 1519 1518 1516 1515 1514 1514 1514 1515 1515 1516 1517 1517 1518 1519 1521 1522 1522 1523 1523 1523 1524
1536 1537 1537 1538 1538 1538 1538 1537 1537 1537 1537 1536 1535 1534 1532 1531 1529 1527 1526 1524 1522 1520 1518 1516 1515 1513 1512 1511 1511 1511 1512 1513 1514 1515 1515 1517 1519 1520 1521 1522 1522 1523 1523
1535 1536 1536 1537 1537 1537 1537 1537 1537 1537 1536 1536 1535 1533 1532 1530 1529 1527 1525 1524 1521 1519 1517 1515 1513 1512 1510 1510 1509 1509 1509 1510 1511 1512 1513 1515 1517 1518 1520 1521 1522 1523 1523
1535 1535 1536 1537 1537 1537 1537 1537 1537 1536 1536 1535 1535 1533 1532 1531 1529 1527 1525 1523 1521 1519 1517 1514 1512 1511 1509 1508 1508 1507 1508 1508 1509 1510 1511 1513 1515 1517 1518 1519 1521 1522 1524
1535 1535 1536 1536 1536 1537 1537 1537 1537 1536 1536 1535 1534 1533 1532 1531 1529 1527 1526 1523 1521 1519 1516 1514 1512 1510 1509 1508 1507 1506 1507 1507 1507 1508 1510 1511 1513 1515 1517 1519 1520 1522 1523
1535 1536 1536 1536 1537 1537 1537 1537 1537 1536 1536 1535 1534 1533 1532 1531 1529 1528 1526 1524 1521 1519 1516 1514 1512 1510 1508 1507 1506 1505 1505 1506 1507 1508 1508 1510 1511 1514 1516 1518 1520 1521 1522
1535 1535 1536 1536 1537 1537 1537 1537 1537 1536 1536 1535 1534 1533 1532 1531 1529 1528 1526 1524 1522 1519 1516 1514 1512 1510 1508 1507 1506 1505 1504 1505 1505 1506 1507 1509 1511 1513 1515 1517 1519 1520 1522
1535 1536 1536 1537 1537 1537 1537 1537 1536 1536 1536 1535 1534 1533 1532 1531 1530 1528 1526 1524 1522 1519 1517 1514 1512 1510 1509 1507 1506 1505 1505 1505 1505 1506 1507 1508 1510 1512 1514 1516 1518 1520 1521
1535 1536 1537 1537 1537 1537 1537 1537 1537 1536 1536 1535 1534 1533 1532 1531 1530 1528 1526 1524 1522 1520 1517 1515 1513 1511 1509 1508 1507 1506 1505 1505 1506 1506 1507 1508 1510 1512 1513 1515 1517 1519 1520
1536 1536 1537 1538 1538 1538 1537 1537 1537 1536 1536 1535 1534 1534 1533 1531 1530 1528 1527 1525 1522 1520 1518 1516 1514 1512 1510 1509 1508 1507 1506 1506 1507 1507 1508 1509 1510 1512 1514 1515 1517 1518 1520
1536 1537 1537 1538 1538 1538 1538 1537 1537 1536 1536 1535 1534 1533 1532 1531 1530 1528 1527 1525 1523 1521 1519 1517 1515 1513 1511 1510 1509 1508 1508 1508 1508 1508 1509 1510 1511 1512 1514 1515 1516 1518 1519
1537 1537 1538 1538 1538 1538 1538 1537 1537 1536 1535 1535 1534 1533 1532 1531 1530 1529 1527 1526 1524 1522 1520 1518 1517 1515 1513 1512 1511 1510 1510 1510 1510 1510 1510 1511 1512 1513 1514 1515 1516 1518 1519
1537 1538 1538 1539 1539 1539 1539 1538 1537 1536 1535 1535 1534 1533 1532 1531 1530 1529 1527 1526 1524 1523 1521 1519 1518 1517 1515 1514 1513 1512 1511 1511 1511 1511 1512 1512 1513 1514 1514 1515 1516 1517 1518
1538 1539 1539 1539 1539 1539 1539 1538 1537 1537 1536 1535 1534 1532 1531 1530 1529 1528 1527 1526 1525 1523 1522 1520 1519 1518 1517 1515 1514 1514 1513 1512 1512 1512 1513 1513 1514 1514 1515 1515 1516 1517 1517
1539 1539 1539 1540 1540 1539 1539 1538 1538 1537 1536 1535 1534 1532 1531 1530 1529 1528 1527 1526 1525 1524 1522 1521 1520 1518 1517 1516 1515 1515 1514 1513 1513 1513 1513 1514 1514 1514 1514 1515 1515 1516 1516
1539 1539 1540 1540 1540 1539 1539 1538 1537 1537 1536 1535 1533 1532 1531 1530 1529 1528 1527 1526 1525 1524 1522 1521 1520 1519 1518 1516 1516 1515 1514 1514 1513 1513 1513 1513 1513 1513 1514 1514 1514 1514 1514
1539 1539 1540 1539 1539 1539 1538 1538 1537 1536 1535 1534 1533 1532 1531 1530 1528 1527 1526 1525 1525 1523 1522 1521 1520 1519 1518 1516 1515 1515 1514 1513 1513 1513 1513 1512 1512 1512 1512 1512 1513 1513 1513
1539 1539 1539 1539 1539 1538 1538 1537 1536 1535 1534 1533 1532 1531 1530 1529 1528 1526 1525 1525 1524 1522 1521 1520 1519 1518 1517 1516 1515 1514 1514 1513 1512 1512 1512 1511 1511 1511 1511 1511 1511 1511 1511
1538 1538 1538 1538 1538 1537 1537 1536 1535 1534 1533 1532 1531 1530 1528 1527 1526 1525 1525 1523 1522 1521 1520 1519 1518 1517 1516 1515 1514 1513 1513 1512 1511 1511 1511 1510 1510 1510 1510 1509 1509 1509 1509
1537 1537 1537 1537 1536 1536 1535 1534 1534 1533 1531 1530 1529 1528 1527 1526 1525 1524 1523 1522 1521 1520 1519 1518 1517 1516 1515 1514 1513 1512 1511 1510 1510 1509 1509 1508 1508 1508 1507 1507 1507 1506 1506
1535 1535 1535 1535 1534 1534 1533 1532 1532 1531 1529 1528 1527 1526 1525 1524 1522 1522 1521 1520 1519 1518 1517 1516 1515 1514 1513 1512 1511 1510 1509 1508 1508 1507 1507 1506 1506 1505 1504 1504 1503 1503 1503
1533 1533 1533 1533 1532 1532 1531 1530 1529 1528 1527 1526 1525 1524 1522 1521 1520 1519 1518 1517 1516 1515 1514 1513 1512 1511 1511 1510 1509 1508 1506 1506 1505 1504 1504 1503 1502 1502 1501 1500 1500 1499 1499
1531 1531 1531 1530 1530 1529 1528 1527 1526 1525 1524 1523 1522 1521 1519 1518 1517 1516 1515 1514 1513 1512 1511 1510 1509 1508 1507 1506 1505 1504 1503 1502 1501 1501 1500 1499 1498 1498 1497 1496 1495 1495 1494
1528 1528 1528 1527 1527 1526 1525 1524 1523 1522 1521 1520 1518 1517 1516 1515 1513 1512 1511 1510 1508 1507 1506 1505 1505 1504 1503 1502 1501 1500 1499 1498 1497 1496 1495 1495 1494 1493 1492 1491 1490 1490 1489
1525 1525 1524 1524 1523 1522 1521 1520 1519 1518 1516 1515 1514 1513 1512 1510 1509 1508 1506 1505 1504 1503 1502 1501 1500 1499 1498 1497 1496 1495 1494 1493 1492 1491 1490 1489 1488 1487 1487 1486 1485 1484 1483